Location: Seattle
(47.6064°N, 122.3308°W)
Time: 15:03:03
(UTC-08:00)

S-56A Canister/Altair - Pass Details

Date: 07 October 2022
Orbit: 638 x 2494 km, 38.9° (Epoch: 03 December)

Event Time Altitude Azimuth Distance (km) Brightness Sun altitude
Exits shadow 06:16:01 13° 259° (W) 3,297 10.1 -11.1°
Maximum altitude 06:21:23 23° 216° (SW) 2,228 9.5 -10.2°
Drops below altitude 10° 06:26:20 10° 165° (SSE) 2,662 10.5 -9.3°
Sets 06:29:02 0° 151° (SSE) 3,394 11.3 -8.9°
